Location: *
(40.7873°S, 98.7174°E)
Time: 01:26:12
(UTC+00:00)

ARIANE 6 FM1 Upper Stage - Pass Details

Date: 19 December 2025
Orbit: 522 x 610 km, 62.0° (Epoch: 20 January)

Event Time Altitude Azimuth Distance (km) Brightness Sun altitude
Rises 17:10:31 0° 207° (SSW) 2,912 7.4 -25.7°
Reaches altitude 10° 17:13:23 10° 189° (S) 1,996 6.5 -25.8°
Maximum altitude 17:16:42 20° 142° (SE) 1,457 5.3 -25.8°
Drops below altitude 10° 17:19:57 10° 95° (E) 1,961 5.5 -25.8°
Enters shadow 17:20:07 - 93° (E) 2,008 5.5 -25.8°
